Location: Caixon
(43.4106°N, 0.0273°E)
Time: 21:01:49
(UTC+00:00)

COSMOS 2406 - Pass Details

Date: 16 October 2021
Orbit: 843 x 863 km, 71.0° (Epoch: 07 December)

Event Time Altitude Azimuth Distance (km) Brightness Sun altitude
Exits shadow 03:02:19 41° 83° (E) 1,225 4.3 -35.1°
Drops below altitude 10° 03:06:54 10° 37° (NE) 2,511 6.3 -34.4°
Sets 03:09:27 0° 31° (NNE) 3,452 7.1 -34.0°
